Вернуться в каталог

CZ-6A DEB

АктивенPO
NORAD 61270·DEBRIS·🇨🇳 China

Запущен Aug 6, 2024 с Taiyuan Satellite Launch Center

Loading…

Ближайшие Пролёты (ближайшие 24 часа)

TLE

СвежийSource: Space-Track

Эпоха: Sep 14, 2026, 23:03 UTC

1 61270U 24140SF  26257.96105378  .00000956  00000-0  59251-3 0  9993
2 61270  88.8195 252.0344 0143793 351.3536   8.5166 13.99451683104808

Отслеживайте CZ-6A DEB в реальном времени с AllMySat

Download on the App Store